Andrews, TX

7:19 PM CDT on September 26, 2016 (GMT -0500)
Andrews

Weather History for KE11 - December, 2012

Change the Weather History Date:

Wednesday, December 19, 2012

  Actual Average (KMAF) Record (KMAF)
Temperature  
Mean Temperature 50 °F 44 °F  
Max Temperature 67 °F 57 °F 78 °F (1978)
Min Temperature 33 °F 30 °F 10 °F (1996)
Degree Days  
Heating Degree Days 14 21  
Month to date heating degree days 378  
Since 1 July heating degree days 857  
Moisture  
Dew Point 18 °F    
Average Humidity 27    
Maximum Humidity 46    
Minimum Humidity 12    
Precipitation  
Precipitation 0.00 in 0.02 in 0.39 in (1991)
Month to date precipitation 0.38  
Year to date precipitation 14.38  
Snow  
Snow 0.00 in - - ()
Month to date snowfall  
Since 1 July snowfall  
Snow Depth -    
Sea Level Pressure  
Sea Level Pressure 29.78 in    
Wind  
Wind Speed 15 mph (WSW)    
Max Wind Speed 39 mph    
Max Gust Speed 52 mph    
Visibility 8 miles    
Events      
T = Trace of Precipitation, MM = Missing Value Source: NWS Daily Summary

Daily Weather History Graph

Daily Weather History Graph

Search for Another Location

Airport or City:

Trip Planner

Search our weather history database for the weather conditions in past years. The results will help you decide how hot, cold, wet, or windy it might be!

Date:

Astronomy

Dec. 19, 2012 Rise Set
Actual Time 7:46 AM CST 5:48 PM CST
Civil Twilight 7:19 AM CST 6:15 PM CST
Nautical Twilight 6:48 AM CST 6:46 PM CST
Astronomical Twilight 6:18 AM CST 7:16 PM CST
Moon 12:19 PM CST (12/19) No Moon Set
Length of Visible Light 10h 56m
Length of Day
10h 01m
Waxing Crescent, 45% of the Moon is Illuminated
Dec 19
Waxing Crescent
Dec 19
First Quarter
Dec 28
Full
Jan 4
Last Quarter
Jan 11
New

Hourly Weather History & Observations

Time (CST) Temp. Windchill Dew Point Humidity Pressure Visibility Wind Dir Wind Speed Gust Speed Precip Events Conditions
12:15 AM 51.8 °F - 15.4 °F 24% 29.77 in 10.0 mi SW 6.9 mph - N/A   Clear
12:35 AM 50.0 °F - 15.6 °F 25% 29.77 in 10.0 mi SW 8.1 mph - N/A   Clear
12:55 AM 51.8 °F - 15.6 °F 24% 29.76 in 10.0 mi SW 9.2 mph - N/A   Clear
1:15 AM 52.2 °F - 15.6 °F 24% 29.74 in 10.0 mi SSW 6.9 mph - N/A   Clear
1:35 AM 52.5 °F - 16.5 °F 24% 29.73 in 10.0 mi SSW 11.5 mph - N/A   Clear
1:55 AM 55.4 °F - 18.1 °F 23% 29.72 in 10.0 mi SSW 10.4 mph - N/A   Clear
2:15 AM 53.6 °F - 17.2 °F 24% 29.71 in 10.0 mi SSW 9.2 mph - N/A   Clear
2:35 AM 52.7 °F - 17.1 °F 25% 29.70 in 10.0 mi SSW 10.4 mph - N/A   Clear
2:55 AM 50.5 °F - 16.3 °F 26% 29.70 in 10.0 mi SSW 6.9 mph - N/A   Clear
3:15 AM 49.1 °F - 16.9 °F 28% 29.69 in 10.0 mi SSW 8.1 mph - N/A   Clear
3:35 AM 50.4 °F - 20.1 °F 30% 29.69 in 10.0 mi SSW 11.5 mph - N/A   Clear
3:55 AM 49.3 °F - 21.4 °F 33% 29.67 in 10.0 mi SSW 12.7 mph 17.3 mph N/A   Clear
4:15 AM 49.1 °F - 22.8 °F 36% 29.67 in 10.0 mi SSW 11.5 mph - N/A   Clear
4:35 AM 48.2 °F - 23.0 °F 37% 29.67 in 10.0 mi SSW 12.7 mph - N/A   Clear
4:55 AM 50.0 °F - 24.8 °F 37% 29.66 in 10.0 mi SSW 15.0 mph - N/A   Clear
5:15 AM 51.4 °F - 24.6 °F 35% 29.66 in 10.0 mi SSW 12.7 mph - N/A   Clear
5:35 AM 50.9 °F - 24.3 °F 35% 29.65 in 10.0 mi SSW 12.7 mph - N/A   Clear
5:55 AM 49.6 °F - 23.9 °F 37% 29.66 in 10.0 mi SSW 11.5 mph - N/A   Clear
6:15 AM 48.6 °F - 23.5 °F 37% 29.66 in 10.0 mi SSW 13.8 mph - N/A   Clear
6:35 AM 47.8 °F - 23.0 °F 38% 29.67 in 10.0 mi SSW 12.7 mph - N/A   Clear
6:55 AM 47.1 °F - 22.6 °F 38% 29.67 in 10.0 mi SSW 10.4 mph - N/A   Clear
7:15 AM 48.4 °F - 21.6 °F 35% 29.67 in 10.0 mi SSW 11.5 mph - N/A   Clear
7:35 AM 49.1 °F - 21.6 °F 34% 29.67 in 10.0 mi SSW 10.4 mph - N/A   Clear
7:55 AM 49.1 °F - 21.4 °F 34% 29.68 in 10.0 mi SSW 11.5 mph - N/A   Clear
8:15 AM 49.1 °F - 21.6 °F 34% 29.67 in 10.0 mi SSW 11.5 mph - N/A   Clear
8:35 AM 49.3 °F - 21.7 °F 34% 29.68 in 10.0 mi SSW 10.4 mph - N/A   Clear
8:55 AM 50.4 °F - 21.2 °F 32% 29.69 in 10.0 mi SW 10.4 mph - N/A   Clear
9:15 AM 50.9 °F - 20.7 °F 30% 29.69 in 10.0 mi SSW 9.2 mph - N/A   Clear
9:35 AM 52.7 °F - 19.2 °F 27% 29.69 in 10.0 mi SSW 9.2 mph - N/A   Clear
9:55 AM 52.5 °F - 19.4 °F 27% 29.70 in 10.0 mi SW 6.9 mph - N/A   Clear
10:15 AM 54.0 °F - 18.3 °F 25% 29.70 in 10.0 mi SW 8.1 mph - N/A   Clear
10:35 AM 55.8 °F - 16.9 °F 22% 29.71 in 10.0 mi SW 9.2 mph - N/A   Clear
10:55 AM 58.8 °F - 15.4 °F 18% 29.71 in 10.0 mi WSW 10.4 mph 16.1 mph N/A   Clear
11:15 AM 62.8 °F - 12.2 °F 14% 29.71 in 10.0 mi WSW 12.7 mph - N/A   Clear
11:35 AM 64.4 °F - 10.0 °F 12% 29.71 in 10.0 mi West 21.9 mph 28.8 mph N/A   Clear
11:55 AM 64.8 °F - 10.0 °F 12% 29.71 in 10.0 mi West 23.0 mph 29.9 mph N/A   Clear
12:15 PM 64.6 °F - 10.8 °F 12% 29.70 in 10.0 mi WSW 17.3 mph 29.9 mph N/A   Clear
12:35 PM 64.8 °F - 13.1 °F 13% 29.69 in 10.0 mi WSW 23.0 mph 31.1 mph N/A   Clear
12:55 PM 65.7 °F - 15.3 °F 14% 29.69 in 10.0 mi West 21.9 mph 35.7 mph N/A   Clear
1:15 PM 66.6 °F - 18.1 °F 16% 29.68 in 5.0 mi West 26.5 mph 40.3 mph N/A   Haze
1:35 PM 67.5 °F - 21.6 °F 18% 29.68 in 5.0 mi West 31.1 mph 38.0 mph N/A   Haze
1:55 PM 66.6 °F - 25.2 °F 21% 29.68 in 2.5 mi West 33.4 mph 49.5 mph N/A   Haze
2:15 PM 66.4 °F - 25.3 °F 21% 29.68 in 4.0 mi West 35.7 mph 46.0 mph N/A   Haze
2:35 PM 66.6 °F - 25.5 °F 21% 29.68 in 4.0 mi West 36.8 mph 44.9 mph N/A   Haze
2:55 PM 66.9 °F - 27.5 °F 23% 29.68 in 4.0 mi West 31.1 mph 42.6 mph N/A   Haze
3:15 PM 66.7 °F - 28.6 °F 24% 29.70 in 3.0 mi West 39.1 mph 51.8 mph N/A   Haze
3:35 PM 64.9 °F - 28.6 °F 25% 29.71 in 4.0 mi West 26.5 mph 44.9 mph N/A   Haze
3:55 PM 63.1 °F - 29.7 °F 28% 29.73 in 5.0 mi West 27.6 mph 39.1 mph N/A   Haze
4:15 PM 61.9 °F - 29.3 °F 29% 29.74 in 3.0 mi West 35.7 mph 50.6 mph N/A   Haze
4:35 PM 59.9 °F - 27.3 °F 29% 29.76 in 2.0 mi West 27.6 mph 49.5 mph N/A   Haze
4:55 PM 59.4 °F - 26.2 °F 28% 29.77 in 2.5 mi West 24.2 mph 50.6 mph N/A   Haze
5:15 PM 58.1 °F - 28.0 °F 32% 29.80 in 4.0 mi West 28.8 mph 42.6 mph N/A   Haze
5:35 PM 57.2 °F - 26.8 °F 31% 29.81 in 4.0 mi West 25.3 mph 39.1 mph N/A   Haze
5:55 PM 56.3 °F - 19.4 °F 24% 29.83 in 5.0 mi West 24.2 mph 35.7 mph N/A   Haze
6:15 PM 55.8 °F - 17.4 °F 22% 29.84 in 5.0 mi West 21.9 mph 31.1 mph N/A   Haze
6:35 PM 53.6 °F - 11.1 °F 18% 29.87 in 5.0 mi NW 20.7 mph 28.8 mph N/A   Haze
6:55 PM 51.8 °F - 8.1 °F 17% 29.90 in 7.0 mi NW 18.4 mph 31.1 mph N/A   Overcast
7:15 PM 50.5 °F - 5.0 °F 16% 29.92 in 5.0 mi NW 23.0 mph 27.6 mph N/A   Haze
7:35 PM 49.5 °F - 5.0 °F 16% 29.94 in 7.0 mi NW 17.3 mph 24.2 mph N/A   Overcast
7:55 PM 48.4 °F - 6.8 °F 18% 29.96 in 7.0 mi NW 19.6 mph 26.5 mph N/A   Scattered Clouds
8:35 PM 47.1 °F - 9.3 °F 22% 30.00 in 10.0 mi NW 21.9 mph 26.5 mph N/A   Scattered Clouds
8:55 PM 46.4 °F 38.1 °F 9.5 °F 22% 30.02 in 7.0 mi NW 24.2 mph 33.4 mph N/A   Mostly Cloudy
9:15 PM 45.7 °F 38.0 °F 10.0 °F 24% 30.04 in 7.0 mi NW 19.6 mph 28.8 mph N/A   Scattered Clouds
9:35 PM 45.5 °F 37.3 °F 9.5 °F 23% 30.06 in 10.0 mi NW 21.9 mph 29.9 mph N/A   Clear
9:55 PM 44.8 °F 37.1 °F 9.5 °F 24% 30.07 in 10.0 mi NW 18.4 mph 28.8 mph N/A   Clear
10:15 PM 44.2 °F 33.7 °F 9.0 °F 24% 30.10 in 7.0 mi North 33.4 mph 42.6 mph N/A   Scattered Clouds
10:35 PM 36.7 °F 25.7 °F 17.4 °F 46% 30.14 in 5.0 mi North 21.9 mph 32.2 mph N/A   Haze
10:55 PM 35.6 °F 24.8 °F 16.5 °F 46% 30.16 in 10.0 mi North 19.6 mph 31.1 mph N/A   Scattered Clouds
11:15 PM 34.9 °F 22.0 °F 14.0 °F 42% 30.17 in 7.0 mi North 27.6 mph 35.7 mph N/A   Clear
11:35 PM 34.0 °F 21.8 °F 13.1 °F 42% 30.19 in 7.0 mi North 23.0 mph 29.9 mph N/A   Clear
11:55 PM 33.6 °F 21.9 °F 12.2 °F 41% 30.21 in 10.0 mi North 20.7 mph 25.3 mph N/A   Clear